Regional Weather Roundup
Issued by NWS

Home | Current Version | Previous Version | Graphics & Text | Print | Product List | Glossary On
Versions: 1 2 3 4 5 6 7 8 9 10 11 12 13 14 15 16 17 18 19 20 21 22 23 24 25 26 27 28 29 30 31 32 33 34 35 36 37 38 39 40 41 42 43 44 45 46 47 48 49 50
000
ASUS43 KOAX 292102
RWRNE

WEATHER ROUNDUP FOR NEBRASKA
NATIONAL WEATHER SERVICE OMAHA NE
400 PM CDT WED JUL 29 2015

NOTES: SATELLITE DATA IS BEING USED TO AUGMENT CLOUD COVER ABOVE
       12000 FEET.
       "FAIR" INDICATES FEW OR NO CLOUDS BELOW 12,000 FEET WITH NO
       SIGNIFICANT WEATHER AND/OR OBSTRUCTIONS TO VISIBILITY.

  * THESE STATIONS DO NOT REPORT WEATHER SUCH AS RAIN...SNOW OR FOG.

NEZ001>004-019>022-054>056-292200-
NEBRASKA PANHANDLE

CITY           SKY/WX    TMP DP  RH WIND       PRES   REMARKS
SCOTTSBLUFF    SUNNY     85  49  28 S10G20    30.22F
ALLIANCE       SUNNY     83  46  27 SW7G17    30.24F
CHADRON        SUNNY     82  47  29 CALM      30.21F
KIMBALL        MOSUNNY   82  47  28 SE13G24   30.27F
SIDNEY         SUNNY     83  48  29 S17G25    30.29F
$$

NEZ057>060-069>072-079>082-292200-
SOUTHWEST NEBRASKA

CITY           SKY/WX    TMP DP  RH WIND       PRES   REMARKS
NORTH PLATTE   SUNNY     83  50  31 S10       30.24F
IMPERIAL       SUNNY     84  44  24 S14G23    30.26F
MCCOOK         SUNNY     83  51  33 S5        30.24F
$$

NEZ005>010-023>029-035>040-094-292200-
NORTH CENTRAL NEBRASKA

CITY           SKY/WX    TMP DP  RH WIND       PRES   REMARKS
VALENTINE      MOSUNNY   87  40  19 W13       30.19F
AINSWORTH      SUNNY     84  44  24 SW12G20   30.22S
BROKEN BOW     SUNNY     84  50  30 SW8       30.23F
O`NEILL        SUNNY     85  47  26 W13       30.19S
ORD            SUNNY     84  47  27 NW9G17    30.20S
$$

NEZ041-046>049-061>064-073>077-083>087-292200-
SOUTH CENTRAL NEBRASKA

CITY           SKY/WX    TMP DP  RH WIND       PRES   REMARKS
GRAND ISLAND   CLOUDY    80  49  33 CALM      30.22F
AURORA         CLOUDY    78  55  46 CALM      30.21S
HASTINGS       CLOUDY    78  52  40 CALM      30.23S
KEARNEY *      CLOUDY    79  52  38 SE5       30.24S
$$

NEZ011>018-030>034-042>045-292200-
NORTHEAST NEBRASKA

CITY           SKY/WX    TMP DP  RH WIND       PRES   REMARKS
NORFOLK        SUNNY     85  51  31 SW9       30.16F
BLAIR          SUNNY     80  57  45 W8        30.16S
COLUMBUS *     PTSUNNY   82  52  34 W5        30.17F
FREMONT        SUNNY     85  53  33 W6        30.17S
TEKAMAH        SUNNY     85  61  44 W7        30.14F
$$

NEZ050>053-065>068-078-088>093-292200-
SOUTHEAST NEBRASKA

CITY           SKY/WX    TMP DP  RH WIND       PRES   REMARKS
LINCOLN        PTSUNNY   84  51  31 N13       30.17F
OMAHA EPPLEY   MOSUNNY   85  56  37 NW8       30.15S
FALLS CITY     PTSUNNY   82  64  54 NE5       30.15R
$$

NEZ044-045-051>053-067-292200-
OMAHA AREA

CITY           SKY/WX    TMP DP  RH WIND       PRES   REMARKS
OMAHA EPPLEY   MOSUNNY   85  56  37 NW8       30.15S
BLAIR          SUNNY     80  57  45 W8        30.16S
FREMONT        SUNNY     85  53  33 W6        30.17S
OFFUTT AFB     SUNNY     86  48  26 VRB6      30.14S
$$



USA.gov is the U.S. government's official web portal to all federal, state and local government web resources and services.